Orange, MA

3:46 PM EDT on May 26, 2018 (GMT -0400)
Orange Municipal

Weather History for KORE - January, 2015

Change the Weather History Date:

Saturday, January 10, 2015

  Actual Average Record
Temperature  
Mean Temperature 6 °F -  
Max Temperature 19 °F 29 °F 53 °F (2016)
Min Temperature -6 °F 12 °F -9 °F (2004)
Degree Days  
Heating Degree Days 58    
Moisture  
Dew Point -4 °F    
Average Humidity 65    
Maximum Humidity 87    
Minimum Humidity 34    
Precipitation  
Precipitation 0.00 in - - ()
Sea Level Pressure  
Sea Level Pressure 30.35 in    
Wind  
Wind Speed 3 mph (WSW)    
Max Wind Speed 15 mph    
Max Gust Speed 21 mph    
Visibility 9 miles    
Events      
Averages and records for this station are not official NWS values.
T = Trace of Precipitation, MM = Missing Value Source: NWS Daily Summary

Daily Weather History Graph

Daily Weather History Graph

Search for Another Location

Airport or City:

Astronomy

Jan. 10, 2015 Rise Set
Actual Time 7:18 AM EST 4:35 PM EST
Civil Twilight 6:46 AM EST 5:06 PM EST
Nautical Twilight 6:11 AM EST 5:41 PM EST
Astronomical Twilight 5:37 AM EST 6:15 PM EST
Moon 10:08 PM EST (1/10) 9:55 AM EST (1/10)
Length of Visible Light 10h 20m
Length of Day
9h 17m
Waning Gibbous, 75% of the Moon is Illuminated
Jan 10
Waning Gibbous
Jan 13
Last Quarter
Jan 20
New
Jan 26
First Quarter
Feb 3
Full

Hourly Weather History & Observations

Time (EST) Temp. Windchill Dew Point Humidity Pressure Visibility Wind Dir Wind Speed Gust Speed Precip Events Conditions
12:52 AM 1.0 °F - -2.9 °F 83% 30.15 in 8.0 mi Calm Calm - N/A   Mostly Cloudy
1:52 AM -0.0 °F - -4.0 °F 83% 30.18 in 8.0 mi Calm Calm - N/A   Overcast
2:52 AM -0.0 °F - -4.0 °F 83% 30.20 in 5.0 mi Calm Calm - N/A   Partly Cloudy
3:52 AM -0.9 °F - -6.0 °F 79% 30.21 in 7.0 mi Calm Calm - N/A   Scattered Clouds
4:52 AM -2.0 °F - -7.1 °F 79% 30.23 in 7.0 mi Calm Calm - N/A   Clear
5:52 AM -2.0 °F - -7.1 °F 79% 30.25 in 6.0 mi Calm Calm - N/A   Haze
6:52 AM -4.0 °F - -9.9 °F 76% 30.28 in 7.0 mi Calm Calm - N/A   Clear
7:52 AM -6.0 °F - -9.0 °F 87% 30.31 in 6.0 mi Calm Calm - N/A   Scattered Clouds
8:52 AM 1.9 °F -9.2 °F -2.9 °F 80% 30.35 in 5.0 mi SW 5.8 mph - N/A   Haze
9:52 AM 14.0 °F -0.2 °F 3.9 °F 64% 30.37 in 10.0 mi WNW 12.7 mph 20.7 mph 0.00 in   Clear
10:52 AM 16.0 °F 1.1 °F 1.0 °F 52% 30.38 in 10.0 mi NW 15.0 mph - 0.00 in   Mostly Cloudy
11:52 AM 17.1 °F 3.6 °F -2.0 °F 43% 30.37 in 10.0 mi WSW 12.7 mph - N/A   Clear
12:52 PM 18.0 °F 5.4 °F -2.0 °F 41% 30.37 in 10.0 mi West 11.5 mph 19.6 mph N/A   Clear
1:52 PM 19.0 °F 11.1 °F -2.0 °F 40% 30.37 in 10.0 mi Variable 5.8 mph - N/A   Clear
2:52 PM 19.0 °F 7.5 °F -2.9 °F 38% 30.37 in 10.0 mi West 10.4 mph - N/A   Clear
3:52 PM 19.0 °F 8.2 °F -4.0 °F 36% 30.39 in 10.0 mi WSW 9.2 mph - N/A   Clear
4:52 PM 17.1 °F 5.8 °F -7.1 °F 34% 30.42 in 10.0 mi WSW 9.2 mph - N/A   Clear
5:52 PM 12.0 °F 2.7 °F -7.1 °F 42% 30.44 in 10.0 mi SSW 5.8 mph - N/A   Clear
6:52 PM 9.0 °F 0.6 °F -4.0 °F 56% 30.42 in 10.0 mi SSW 4.6 mph - N/A   Clear
7:52 PM 3.9 °F - -2.9 °F 73% 30.45 in 10.0 mi Calm Calm - N/A   Clear
8:52 PM 1.0 °F - -4.0 °F 79% 30.47 in 10.0 mi Calm Calm - N/A   Clear
9:52 PM -2.0 °F - -6.0 °F 83% 30.48 in 10.0 mi Calm Calm - N/A   Clear
10:52 PM -2.9 °F - -7.1 °F 82% 30.49 in 9.0 mi Calm Calm - N/A   Clear
11:52 PM -2.9 °F - -8.0 °F 79% 30.51 in 10.0 mi Calm Calm - N/A   Clear